Regional Weather Roundup
Issued by NWS

Home | Current Version | Previous Version | Graphics & Text | Print | Product List | Glossary Off
Versions: 1 2 3 4 5 6 7 8 9 10 11 12 13 14 15 16 17 18 19 20 21 22 23 24 25 26 27 28 29 30 31 32 33 34 35 36 37 38 39 40 41 42 43 44 45 46 47 48 49 50

000
ASUS44 KFWD 191903
RWRTX
NORTH TEXAS HOURLY WEATHER ROUNDUP
NATIONAL WEATHER SERVICE FORT WORTH TX
200 PM CDT THU OCT 19 2017

NOTE: "FAIR" INDICATES FEW OR NO CLOUDS BELOW 12,000 FEET WITH NO
SIGNIFICANT WEATHER AND/OR OBSTRUCTIONS TO VISIBILITY.

TXZ118-119-192000-
DALLAS/FORT WORTH METROPLEX

CITY           SKY/WX    TMP DP  RH WIND       PRES   REMARKS
DFW AIRPORT    FAIR      81  53  37 SE8       30.11F
DALLAS LOVE    FAIR      79  53  40 S9        30.13F
FTW MEACHAM    FAIR      81  56  42 S10       30.11F
DAL-EXECUTIVE  FAIR      78  57  48 SE6       30.13F
FTW-ALLIANCE   FAIR      79  53  40 VRB7      30.11F
FTW-NAS-JRB    FAIR      80  52  37 S8        30.12
FTW-SPINKS     SUNNY     81  54  39 S3        30.14F
ARLINGTON      FAIR      77  57  50 E10       30.12F
GRAND PRAIRIE  SUNNY     79  54  41 E5        30.14F
ADDISON        MOSUNNY   77  54  44 MISG      30.14F
MESQUITE       SUNNY     79  54  41 SE6       30.15F
LANCASTER      FAIR      78  52  39 SE5       30.14F
$$

TXZ091>094-102>105-117-120-121-131>134-192000-
NORTH CENTRAL TEXAS

CITY           SKY/WX    TMP DP  RH WIND       PRES   REMARKS
SHRMAN/DENISON FAIR      78  54  43 SE7       30.15F
GAINESVILLE    FAIR      77  51  41 SE9       30.14F
BOWIE          FAIR      78  53  43 SE12G17   30.12F
BRIDGEPORT     FAIR      80  51  36 S9        30.13F
DECATUR        FAIR      78  52  40 SE8       30.11F
DENTON         FAIR      79  55  43 SE8       30.12F
MCKINNEY       FAIR      78  57  48 SE9G16    30.13F
BONHAM         FAIR      78  54  43 SE9       30.14F
ROCKWALL       FAIR      78  53  42 S8        30.14F
TERRELL        FAIR      79  55  43 SE9       30.15F
WAXAHACHIE     FAIR      79  55  42 CALM      30.14F
CLEBURNE       FAIR      79  55  44 SE9G21    30.13F
GRANBURY       FAIR      81  53  38 SE6       30.11F
$$

TXZ083>090-098>101-113>116-127>130-139>142-154-155-192000-
WESTERN NORTH TEXAS

CITY           SKY/WX    TMP DP  RH WIND       PRES   REMARKS
WICHITA FALLS  PTSUNNY   79  51  37 S10       30.08F
WF-KICKAPOO    FAIR      80  50  35 S10G21    30.11F
VERNON         FAIR      79  46  30 S14       30.08F
ABILENE        FAIR      75  52  44 S16       30.10F
ABILENE-DYESS  SUNNY     77  55  46 S16       30.09F
BRECKENRIDGE   FAIR      82  48  30 S9G20     30.08F HAZE
CISCO          FAIR      79  50  36 S14G21    30.12F
EASTLAND       FAIR      79  52  38 S12       30.10F
RANGER         FAIR      78  49  35 S8        30.11F
MINERAL WELLS  FAIR      81  51  35 S10       30.09F
STEPHENVILLE   FAIR      79  50  36 S7        30.14F
COMANCHE       FAIR      81  49  32 S12G17    30.11F
BROWNWOOD      FAIR      81  48  32 SE13      30.10F
COLEMAN        FAIR      77  50  38 S9G16     30.10F
$$

TXZ143>147-156>162-174-175-192000-
CENTRAL TEXAS

CITY           SKY/WX    TMP DP  RH WIND       PRES   REMARKS
WACO           FAIR      83  57  41 S10       30.11F
WACO-TSTC      SUNNY     82  55  39 SE3       30.11F
WACO-MCGREGOR  FAIR      81  58  45 VRB6      30.11F
HILLSBORO      FAIR      80  56  43 S5        30.12F
CORSICANA      FAIR      80  58  46 VRB5      30.14F
MEXIA          FAIR      80  56  44 CALM      30.12F
HEARNE         FAIR      81  59  47 SE5       30.12F
CAMERON        FAIR      81  60  48 E5        30.11F
TEMPLE         FAIR      81  60  48 S9        30.11F
KILLEEN        FAIR      78  59  51 SE13G20   30.10F
KILLEEN-SKYLRK FAIR      80  61  52 S3        30.11F
FORT HOOD      FAIR      78  60  54 SE10      30.08F
GATESVILLE     FAIR      79  57  47 CALM      30.12F
HAMILTON       FAIR      79  55  42 S6        30.13F
LAMPASAS       FAIR      78  61  55 S9G20     30.11F
$$

TXZ095>097-106>112-122>126-135>138-148>153-164>167-192000-
EAST TEXAS

CITY           SKY/WX    TMP DP  RH WIND       PRES   REMARKS
PARIS          FAIR      79  57  46 VRB5      30.15F
SULPHUR SPRNGS FAIR      79  56  44 S10       30.16F
MOUNT PLEASANT FAIR      79  56  45 E3        30.17F
GILMER         FAIR      75  57  53 CALM      30.16F
MINEOLA        FAIR      77  59  53 E6        30.15F
TYLER          FAIR      79  54  41 SE9       30.14F
LONGVIEW       FAIR      79  57  46 MISG      30.15F
MARSHALL       FAIR      78  52  39 E6        30.17F
ATHENS         FAIR      79  55  44 SE7       30.12F
PALESTINE      FAIR      78  60  53 S6        30.15F
JACKSONVILLE   FAIR      79  58  48 E6        30.17F
HENDERSON      FAIR      79  58  48 NE6       30.16F
CENTER         FAIR      80  60  51 E7        30.17F
NACOGDOCHES    FAIR      79  60  52 VRB5      30.15F
LUFKIN         FAIR      80  62  54 E10       30.14F
$$

SUPPLEMENTAL OBSERVATIONS (NWS FORT WORTH AREA)

CITY           SKY/WX    TMP DP  RH WIND       PRES   REMARKS
$$

SUPPLEMENTAL OBSERVATIONS (NWS NORMAN AREA)

CITY           SKY/WX    TMP DP  RH WIND       PRES   REMARKS
GOODLETT         N/A     79  49  33 SE14G20   30.07F
ODELL            N/A     78  54  42 SE12      30.09F
CROWELL          N/A     80  53  38 S16       30.08F
KNOX CITY        N/A     81  48  31 SE15      30.08F
SEYMOUR          N/A     79  49  35 SE13      30.09F
$$

SUPPLEMENTAL OBSERVATIONS (NWS SAN ANGELO AREA)

CITY           SKY/WX    TMP DP  RH WIND       PRES   REMARKS
WEINERT          N/A     80  51  35 SE13      30.09F
HASKELL          N/A     78  46  32 S14G21    30.09F
THROCKMORTON     N/A     79  55  42 SE12      30.10F
STAMFORD         N/A     80  52  37 S15       30.09F
CLYDE            N/A     76  52  42 SE9       30.12F
$$

SUPPLEMENTAL OBSERVATIONS (NWS SHREVEPORT AREA)

CITY           SKY/WX    TMP DP  RH WIND       PRES   REMARKS
$$

SUPPLEMENTAL OBSERVATIONS ARE A COLLECTION OF AUTOMATED INSTRUMENTS
THAT ARE MAINTAINED BY A VARIETY OF FEDERAL AND STATE AGENCIES.
CERTAIN ELEMENTS...SUCH AS HUMIDITY VALUES AND SUSTAINED WIND
SPEEDS...MAY BE APPROXIMATED.





USA.gov is the U.S. government's official web portal to all federal, state and local government web resources and services.